Tracking 19177 objects as of 25-May-2018
HD Live streaming from Space Station
objects crossing your sky now

OSCAR 25

Track OSCAR 25 now!
10-day predictions
OSCAR 25 is classified as:


NORAD ID: 19419
Int'l Code: 1988-074A
Perigee: 1,036.6 km
Apogee: 1,179.9 km
Inclination: 90.0 °
Period: 107.3 minutes
Semi major axis: 7479 km
RCS: 1.4853 m2 (large)
Launch date: August 25, 1988
Source: United States (US)
Launch site: AIR FORCE WESTERN TEST RANGE (AFWTR)
aabbcc
Your satellite tracking list
Your tracking list is empty




NASA's NSSDC Master Catalog

Two Line Element Set (TLE):
1 19419U 88074A   18144.60023191 +.00000030 +00000-0 +36136-4 0  9997
2 19419 089.9896 018.5195 0095809 193.7393 224.1453 13.42188823456253
Source of the keplerian elements: AFSPC